Content
SEND FEEDBACK

Daily
Averages
Monthly
Summary
United Kingdom

LONDON, ENGLAND


Home > Europe > United Kingdom > England
Elevation: 203 feet     Latitude: 51 09N     Longitude: 000 11W

WEATHER
 
SELECT A DAY
Number of Records: 292,972;   Date Range: 7/1/96 - 7/29/14
 
SHARE

PRINT THIS DATA

[ ← Previous Day ]
WEATHER ALMANAC - FEBRUARY 20, 2013
[ Next Day → ]
[ °C ]   °F
Weather ElementAverageHighLow
Temperature36.8 °F41 °F (12:50 pm)32 °F (7:20 pm)
Dewpoint31.1 °F37.4 °F (7:20 am)24.8 °F (7:50 pm)
Humidity80.8 %100 % (12:50 am)61 % (2:20 pm)
Barometer30.19 in30.24 in (6:50 pm)30.09 in (12:50 am)
Wind Speed11 mph18.4 mph (4:20 pm)
Wind Gust26.5 mph (8:50 pm)
Weather ElementAverage
Visibility3.7 mi
Wind DirectionE (85.5 °)

Weather ElementTotal
Precipitation---
Heating Degree Days28.5 (Base 65)
Averaged from 47 records on February 20, 2013
WEATHER CONDITIONS BREAKOUT
WIND DIRECTION BREAKOUT
WEATHER BY HOUR - FEBRUARY 20, 2013
[ °C ]   °F
Local TimeTemperatureDewpointHumidityBarometerVisibilityWind DirectionWind SpeedGust SpeedPrecipitationEventsConditions
12:50 AM33.8 °F33.8 °F100 %30.09 in0.1 miEast (80°)6.9 mphFogFog
1:20 AM35.6 °F33.8 °F93 %30.12 in0.2 miEast (80°)9.2 mphFogFog
1:50 AM35.6 °F33.8 °F93 %30.12 in0.7 miEast (80°)8.1 mphHaze
2:20 AM35.6 °F35.6 °F100 %30.12 in0.9 miEast (90°)9.2 mphMostly Cloudy
2:50 AM35.6 °F35.6 °F100 %30.12 in0.8 miEast (80°)9.2 mphMostly Cloudy
3:20 AM35.6 °F35.6 °F100 %30.12 in0.7 miEast (90°)6.9 mphMostly Cloudy
3:50 AM35.6 °F35.6 °F100 %30.12 in0.9 miENE (70°)4.6 mphPartly Cloudy
4:20 AM37.4 °F35.6 °F93 %30.12 in1.0 miWNW (290°)3.5 mphMostly Cloudy
4:50 AM37.4 °F35.6 °F93 %30.15 in1.0 miNW (320°)3.5 mphMostly Cloudy
5:20 AM37.4 °F35.6 °F93 %30.15 in1.4 miNNW (330°)4.6 mphHaze
5:50 AM37.4 °F35.6 °F93 %30.15 in0.7 miNorth (10°)4.6 mphDrizzle
6:20 AM37.4 °F35.6 °F93 %30.15 in0.7 miNorth (10°)3.5 mphDrizzle
6:50 AM37.4 °F35.6 °F93 %30.15 in0.6 miNorth (10°)5.8 mphLight Drizzle
7:20 AM37.4 °F37.4 °F100 %30.15 in0.7 miNNE (30°)6.9 mphLight Drizzle
7:50 AM39.2 °F37.4 °F93 %30.18 in0.9 miNNE (30°)5.8 mphLight Drizzle
8:20 AM39.2 °F37.4 °F93 %30.18 in0.7 miENE (70°)6.9 mphLight Drizzle
8:50 AM39.2 °F37.4 °F93 %30.18 in1.1 miEast (80°)11.5 mphLight Drizzle
9:20 AM39.2 °F35.6 °F87 %30.18 in2.5 miEast (80°)12.7 mphLight Drizzle
9:50 AM39.2 °F33.8 °F81 %30.18 in3.7 miEast (80°)15.0 mphMostly Cloudy
10:20 AM39.2 °F33.8 °F81 %30.21 in5.0 miENE (70°)12.7 mphMostly Cloudy
10:50 AM37.4 °F33.8 °F87 %30.21 in5.6 miENE (70°)12.7 mphMostly Cloudy
11:20 AM37.4 °F32.0 °F81 %30.21 in5.6 miENE (70°)15.0 mphMostly Cloudy
11:50 AM39.2 °F32.0 °F75 %30.21 in6.2 miEast (80°)12.7 mphMostly Cloudy
12:20 PM39.2 °F32.0 °F75 %30.21 in6.2 miEast (90°)13.8 mphScattered Clouds
12:50 PM41.0 °F32.0 °F70 %30.21 in6.2 miENE (60°)16.1 mphScattered Clouds
1:20 PM41.0 °F30.2 °F65 %30.21 in6.2 miENE (70°)13.8 mphPartly Cloudy
1:50 PM41.0 °F30.2 °F65 %30.21 in6.2 miENE (70°)15.0 mphPartly Cloudy
2:20 PM41.0 °F28.4 °F61 %30.21 in6.2 miEast (90°)16.1 mphPartly Cloudy
2:50 PM41.0 °F30.2 °F65 %30.21 in6.2 miENE (70°)13.8 mphPartly Cloudy
3:20 PM41.0 °F30.2 °F65 %30.21 in6.2 miENE (70°)15.0 mphPartly Cloudy
3:50 PM39.2 °F28.4 °F65 %30.18 in6.2 miENE (70°)15.0 mphPartly Cloudy
4:20 PM37.4 °F28.4 °F70 %30.18 inENE (60°)18.4 mphClear
4:50 PM37.4 °F26.6 °F65 %30.18 inENE (70°)17.3 mphClear
5:20 PM35.6 °F26.6 °F70 %30.21 inENE (70°)16.1 mphClear
5:50 PM33.8 °F26.6 °F75 %30.21 inENE (70°)12.7 mphClear
6:20 PM33.8 °F26.6 °F75 %30.21 inENE (70°)12.7 mphClear
6:50 PM33.8 °F26.6 °F75 %30.24 inENE (70°)12.7 mphClear
7:20 PM32.0 °F26.6 °F80 %30.24 inENE (70°)11.5 mphClear
7:50 PM32.0 °F24.8 °F75 %30.24 in6.2 miEast (80°)9.2 mphPartly Cloudy
8:20 PM33.8 °F26.6 °F75 %30.24 in6.2 miEast (80°)8.1 mphScattered Clouds
8:50 PM33.8 °F24.8 °F70 %30.24 in6.2 miEast (80°)12.7 mph26.5 mphMostly Cloudy
9:20 PM33.8 °F24.8 °F70 %30.24 in6.2 miEast (80°)13.8 mphPartly Cloudy
9:50 PM33.8 °F24.8 °F70 %30.24 in6.2 miEast (90°)15.0 mphMostly Cloudy
10:20 PM33.8 °F24.8 °F70 %30.24 in6.2 miEast (80°)11.5 mphMostly Cloudy
10:50 PM33.8 °F24.8 °F70 %30.24 in6.2 miEast (90°)12.7 mphMostly Cloudy
11:20 PM33.8 °F24.8 °F70 %30.24 in6.2 miEast (80°)10.4 mphMostly Cloudy
11:50 PM33.8 °F24.8 °F70 %30.24 in6.2 miEast (90°)10.4 mphMostly Cloudy
Hourly data recorded from EGKK, located miles away from London, England







STORIES FROM OUR PARTNERS